Location: Fort Wayne
(41.1310°N, 85.1290°W)
Time: 08:13:58
(UTC-04:00)

Gbstr 26 Del rocket - Visible Passes

Search period start: 30 October 2014 00:00
Search period end: 08 November 2014 23:00
Orbit: 493 x 1277 km, 51.8° (Epoch: 29 October)

Date Brightness Start Highest point End Pass type
(mag) Time Alt. Az. Time Alt. Az. Time Alt. Az.
04 Nov 7.2 06:30:56 10° SE 06:31:29 10° SE 06:32:02 10° ESE visible
05 Nov 6.7 06:25:36 10° SSE 06:28:45 14° SE 06:31:37 10° E visible
06 Nov 6.5 06:21:43 10° S 06:26:01 19° SE 06:29:48 10° E visible
07 Nov 6.0 06:18:12 10° S 06:23:18 25° SE 06:27:40 10° ENE visible
08 Nov 5.5 06:14:55 10° SSW 06:20:36 33° SE 06:25:20 10° ENE visible
